Year,Month,Day,Hour,Minute,Value (Times are PST for temperature in C)
2006,07,08,00,00,14.30
2006,07,08,00,01,14.30
2006,07,08,00,02,14.30
2006,07,08,00,03,14.30
2006,07,08,00,04,14.30
2006,07,08,00,05,14.20
2006,07,08,00,06,14.20
2006,07,08,00,07,14.20
2006,07,08,00,08,14.20
2006,07,08,00,09,14.20
2006,07,08,00,10,14.10
2006,07,08,00,11,14.10
2006,07,08,00,12,14.10
2006,07,08,00,13,14.00
2006,07,08,00,14,14.00
2006,07,08,00,15,14.00
2006,07,08,00,16,13.90
2006,07,08,00,17,13.90
2006,07,08,00,18,13.90
2006,07,08,00,19,13.80
2006,07,08,00,20,13.70
2006,07,08,00,21,13.70
2006,07,08,00,22,13.70
2006,07,08,00,23,13.70
2006,07,08,00,24,13.70
2006,07,08,00,25,13.70
2006,07,08,00,26,13.70
2006,07,08,00,27,13.70
2006,07,08,00,28,13.70
2006,07,08,00,29,13.70
2006,07,08,00,30,13.70
2006,07,08,00,31,13.70
2006,07,08,00,32,13.70
2006,07,08,00,33,13.60
2006,07,08,00,34,13.60
2006,07,08,00,35,13.60
2006,07,08,00,36,13.60
2006,07,08,00,37,13.70
2006,07,08,00,38,13.70
2006,07,08,00,39,13.70
2006,07,08,00,40,13.70
2006,07,08,00,41,13.80
2006,07,08,00,42,13.80
2006,07,08,00,43,13.80
2006,07,08,00,44,13.90
2006,07,08,00,45,13.90
2006,07,08,00,46,13.90
2006,07,08,00,47,13.90
2006,07,08,00,48,13.90
2006,07,08,00,49,13.90
2006,07,08,00,50,13.90
2006,07,08,00,51,13.90
2006,07,08,00,52,13.80
2006,07,08,00,53,13.80
2006,07,08,00,54,13.80
2006,07,08,00,55,13.80
2006,07,08,00,56,13.80
2006,07,08,00,57,13.80
2006,07,08,00,58,13.80
2006,07,08,00,59,13.80
2006,07,08,01,00,13.80
2006,07,08,01,01,13.80
2006,07,08,01,02,13.80
2006,07,08,01,03,13.70
2006,07,08,01,04,13.70
2006,07,08,01,05,13.70
2006,07,08,01,06,13.70
2006,07,08,01,07,13.70
2006,07,08,01,08,13.70
2006,07,08,01,09,13.60
2006,07,08,01,10,13.60
2006,07,08,01,11,13.60
2006,07,08,01,12,13.50
2006,07,08,01,13,13.50
2006,07,08,01,14,13.50
2006,07,08,01,15,13.50
2006,07,08,01,16,13.50
2006,07,08,01,17,13.40
2006,07,08,01,18,13.40
2006,07,08,01,19,13.40
2006,07,08,01,20,13.40
2006,07,08,01,21,13.40
2006,07,08,01,22,13.40
2006,07,08,01,23,13.40
2006,07,08,01,24,13.30
2006,07,08,01,25,13.30
2006,07,08,01,26,13.30
2006,07,08,01,27,13.30
2006,07,08,01,28,13.30
2006,07,08,01,29,13.30
2006,07,08,01,30,13.30
2006,07,08,01,31,13.30
2006,07,08,01,32,13.30
2006,07,08,01,33,13.20
2006,07,08,01,34,13.20
2006,07,08,01,35,13.20
2006,07,08,01,36,13.20
2006,07,08,01,37,13.20
2006,07,08,01,38,13.20
2006,07,08,01,39,13.20
2006,07,08,01,40,13.10
2006,07,08,01,41,13.10
2006,07,08,01,42,13.10
2006,07,08,01,43,13.10
2006,07,08,01,44,13.10
2006,07,08,01,45,13.10
2006,07,08,01,46,13.10
2006,07,08,01,47,13.00
2006,07,08,01,48,13.00
2006,07,08,01,49,13.00
2006,07,08,01,50,13.00
2006,07,08,01,51,13.00
2006,07,08,01,52,13.00
2006,07,08,01,53,13.00
2006,07,08,01,54,13.00
2006,07,08,01,55,13.00
2006,07,08,01,56,13.00
2006,07,08,01,57,13.00
2006,07,08,01,58,12.90
2006,07,08,01,59,12.90
2006,07,08,02,00,12.90
2006,07,08,02,01,12.80
2006,07,08,02,02,12.80
2006,07,08,02,03,12.90
2006,07,08,02,04,12.90
2006,07,08,02,05,12.90
2006,07,08,02,06,12.90
2006,07,08,02,07,12.90
2006,07,08,02,08,12.90
2006,07,08,02,09,12.90
2006,07,08,02,10,12.90
2006,07,08,02,11,12.90
2006,07,08,02,12,12.90
2006,07,08,02,13,12.90
2006,07,08,02,14,12.90
2006,07,08,02,15,13.00
2006,07,08,02,16,13.00
2006,07,08,02,17,13.00
2006,07,08,02,18,13.00
2006,07,08,02,19,13.00
2006,07,08,02,20,13.00
2006,07,08,02,21,13.00
2006,07,08,02,22,12.90
2006,07,08,02,23,12.90
2006,07,08,02,24,12.90
2006,07,08,02,25,12.90
2006,07,08,02,26,12.80
2006,07,08,02,27,12.80
2006,07,08,02,28,12.80
2006,07,08,02,29,12.80
2006,07,08,02,30,12.80
2006,07,08,02,31,12.80
2006,07,08,02,32,12.80
2006,07,08,02,33,12.80
2006,07,08,02,34,12.80
2006,07,08,02,35,12.80
2006,07,08,02,36,12.80
2006,07,08,02,37,12.80
2006,07,08,02,38,12.80
2006,07,08,02,39,12.80
2006,07,08,02,40,12.80
2006,07,08,02,41,12.90
2006,07,08,02,42,12.90
2006,07,08,02,43,12.90
2006,07,08,02,44,12.90
2006,07,08,02,45,12.90
2006,07,08,02,46,12.90
2006,07,08,02,47,12.80
2006,07,08,02,48,12.80
2006,07,08,02,49,12.80
2006,07,08,02,50,12.80
2006,07,08,02,51,12.80
2006,07,08,02,52,12.80
2006,07,08,02,53,12.80
2006,07,08,02,54,12.80
2006,07,08,02,55,12.80
2006,07,08,02,56,12.70
2006,07,08,02,57,12.70
2006,07,08,02,58,12.70
2006,07,08,02,59,12.70
2006,07,08,03,00,12.70
2006,07,08,03,01,12.70
2006,07,08,03,02,12.70
2006,07,08,03,03,12.70
2006,07,08,03,04,12.70
2006,07,08,03,05,12.60
2006,07,08,03,06,12.60
2006,07,08,03,07,12.60
2006,07,08,03,08,12.50
2006,07,08,03,09,12.50
2006,07,08,03,10,12.50
2006,07,08,03,11,12.40
2006,07,08,03,12,12.40
2006,07,08,03,13,12.40
2006,07,08,03,14,12.30
2006,07,08,03,15,12.30
2006,07,08,03,16,12.30
2006,07,08,03,17,12.30
2006,07,08,03,18,12.30
2006,07,08,03,19,12.30
2006,07,08,03,20,12.30
2006,07,08,03,21,12.30
2006,07,08,03,22,12.30
2006,07,08,03,23,12.30
2006,07,08,03,24,12.30
2006,07,08,03,25,12.30
2006,07,08,03,26,12.30
2006,07,08,03,27,12.30
2006,07,08,03,28,12.30
2006,07,08,03,29,12.30
2006,07,08,03,30,12.30
2006,07,08,03,31,12.30
2006,07,08,03,32,12.30
2006,07,08,03,33,12.30
2006,07,08,03,34,12.30
2006,07,08,03,35,12.30
2006,07,08,03,36,12.30
2006,07,08,03,37,12.30
2006,07,08,03,38,12.30
2006,07,08,03,39,12.30
2006,07,08,03,40,12.30
2006,07,08,03,41,12.30
2006,07,08,03,42,12.30
2006,07,08,03,43,12.30
2006,07,08,03,44,12.30
2006,07,08,03,45,12.30
2006,07,08,03,46,12.20
2006,07,08,03,47,12.20
2006,07,08,03,48,12.20
2006,07,08,03,49,12.20
2006,07,08,03,50,12.20
2006,07,08,03,51,12.20
2006,07,08,03,52,12.20
2006,07,08,03,53,12.20
2006,07,08,03,54,12.20
2006,07,08,03,55,12.20
2006,07,08,03,56,12.20
2006,07,08,03,57,12.20
2006,07,08,03,58,12.30
2006,07,08,03,59,12.30
2006,07,08,04,00,12.30
2006,07,08,04,01,12.30
2006,07,08,04,02,12.30
2006,07,08,04,03,12.30
2006,07,08,04,04,12.30
2006,07,08,04,05,12.30
2006,07,08,04,06,12.30
2006,07,08,04,07,12.30
2006,07,08,04,08,12.20
2006,07,08,04,09,12.20
2006,07,08,04,10,12.20
2006,07,08,04,11,12.20
2006,07,08,04,12,12.20
2006,07,08,04,13,12.20
2006,07,08,04,14,12.20
2006,07,08,04,15,12.20
2006,07,08,04,16,12.30
2006,07,08,04,17,12.30
2006,07,08,04,18,12.30
2006,07,08,04,19,12.30
2006,07,08,04,20,12.30
2006,07,08,04,21,12.30
2006,07,08,04,22,12.30
2006,07,08,04,23,12.30
2006,07,08,04,24,12.30
2006,07,08,04,25,12.30
2006,07,08,04,26,12.30
2006,07,08,04,27,12.20
2006,07,08,04,28,12.20
2006,07,08,04,29,12.20
2006,07,08,04,30,12.20
2006,07,08,04,31,12.10
2006,07,08,04,32,12.10
2006,07,08,04,33,12.10
2006,07,08,04,34,12.10
2006,07,08,04,35,12.10
2006,07,08,04,36,12.00
2006,07,08,04,37,12.00
2006,07,08,04,38,12.00
2006,07,08,04,39,11.90
2006,07,08,04,40,11.90
2006,07,08,04,41,11.80
2006,07,08,04,42,11.80
2006,07,08,04,43,11.80
2006,07,08,04,44,11.80
2006,07,08,04,45,11.80
2006,07,08,04,46,11.80
2006,07,08,04,47,11.80
2006,07,08,04,48,11.80
2006,07,08,04,49,11.80
2006,07,08,04,50,11.80
2006,07,08,04,51,11.80
2006,07,08,04,52,11.90
2006,07,08,04,53,11.90
2006,07,08,04,54,11.90
2006,07,08,04,55,12.00
2006,07,08,04,56,12.00
2006,07,08,04,57,11.90
2006,07,08,04,58,11.90
2006,07,08,04,59,11.90
2006,07,08,05,00,11.90
2006,07,08,05,01,11.90
2006,07,08,05,02,11.90
2006,07,08,05,03,11.90
2006,07,08,05,04,11.90
2006,07,08,05,05,11.90
2006,07,08,05,06,11.90
2006,07,08,05,07,11.90
2006,07,08,05,08,11.90
2006,07,08,05,09,11.90
2006,07,08,05,10,11.90
2006,07,08,05,11,11.90
2006,07,08,05,12,11.80
2006,07,08,05,13,11.80
2006,07,08,05,14,11.80
2006,07,08,05,15,11.80
2006,07,08,05,16,11.70
2006,07,08,05,17,11.70
2006,07,08,05,18,11.70
2006,07,08,05,19,11.60
2006,07,08,05,20,11.60
2006,07,08,05,21,11.60
2006,07,08,05,22,11.60
2006,07,08,05,23,11.60
2006,07,08,05,24,11.60
2006,07,08,05,25,11.60
2006,07,08,05,26,11.60
2006,07,08,05,27,11.60
2006,07,08,05,28,11.70
2006,07,08,05,29,11.70
2006,07,08,05,30,11.70
2006,07,08,05,31,11.80
2006,07,08,05,32,11.80
2006,07,08,05,33,11.80
2006,07,08,05,34,11.80
2006,07,08,05,35,11.80
2006,07,08,05,36,11.80
2006,07,08,05,37,11.80
2006,07,08,05,38,11.80
2006,07,08,05,39,11.80
2006,07,08,05,40,11.80
2006,07,08,05,41,11.80
2006,07,08,05,42,11.80
2006,07,08,05,43,11.80
2006,07,08,05,44,11.80
2006,07,08,05,45,11.80
2006,07,08,05,46,11.80
2006,07,08,05,47,11.80
2006,07,08,05,48,11.90
2006,07,08,05,49,11.90
2006,07,08,05,50,11.90
2006,07,08,05,51,11.90
2006,07,08,05,52,11.90
2006,07,08,05,53,12.00
2006,07,08,05,54,12.00
2006,07,08,05,55,12.00
2006,07,08,05,56,12.00
2006,07,08,05,57,12.00
2006,07,08,05,58,12.00
2006,07,08,05,59,12.10
2006,07,08,06,00,12.10
2006,07,08,06,01,12.10
2006,07,08,06,02,12.20
2006,07,08,06,03,12.20
2006,07,08,06,04,12.20
2006,07,08,06,05,12.30
2006,07,08,06,06,12.30
2006,07,08,06,07,12.30
2006,07,08,06,08,12.40
2006,07,08,06,09,12.40
2006,07,08,06,10,12.50
2006,07,08,06,11,12.50
2006,07,08,06,12,12.50
2006,07,08,06,13,12.50
2006,07,08,06,14,12.60
2006,07,08,06,15,12.60
2006,07,08,06,16,12.60
2006,07,08,06,17,12.60
2006,07,08,06,18,12.60
2006,07,08,06,19,12.70
2006,07,08,06,20,12.70
2006,07,08,06,21,12.80
2006,07,08,06,22,12.80
2006,07,08,06,23,12.80
2006,07,08,06,24,12.80
2006,07,08,06,25,12.90
2006,07,08,06,26,12.90
2006,07,08,06,27,13.00
2006,07,08,06,28,13.00
2006,07,08,06,29,13.10
2006,07,08,06,30,13.10
2006,07,08,06,31,13.20
2006,07,08,06,32,13.30
2006,07,08,06,33,13.30
2006,07,08,06,34,13.30
2006,07,08,06,35,13.40
2006,07,08,06,36,13.50
2006,07,08,06,37,13.50
2006,07,08,06,38,13.60
2006,07,08,06,39,13.60
2006,07,08,06,40,13.70
2006,07,08,06,41,13.70
2006,07,08,06,42,13.80
2006,07,08,06,43,13.80
2006,07,08,06,44,13.90
2006,07,08,06,45,13.90
2006,07,08,06,46,14.00
2006,07,08,06,47,14.10
2006,07,08,06,48,14.10
2006,07,08,06,49,14.20
2006,07,08,06,50,14.20
2006,07,08,06,51,14.30
2006,07,08,06,52,14.30
2006,07,08,06,53,14.40
2006,07,08,06,54,14.50
2006,07,08,06,55,14.60
2006,07,08,06,56,14.70
2006,07,08,06,57,14.80
2006,07,08,06,58,14.80
2006,07,08,06,59,14.90
2006,07,08,07,00,15.00
2006,07,08,07,01,15.00
2006,07,08,07,02,15.10
2006,07,08,07,03,15.10
2006,07,08,07,04,15.20
2006,07,08,07,05,15.20
2006,07,08,07,06,15.30
2006,07,08,07,07,15.30
2006,07,08,07,08,15.30
2006,07,08,07,09,15.40
2006,07,08,07,10,15.40
2006,07,08,07,11,15.50
2006,07,08,07,12,15.50
2006,07,08,07,13,15.50
2006,07,08,07,14,15.60
2006,07,08,07,15,15.70
2006,07,08,07,16,15.90
2006,07,08,07,17,16.00
2006,07,08,07,18,16.20
2006,07,08,07,19,16.30
2006,07,08,07,20,16.50
2006,07,08,07,21,16.60
2006,07,08,07,22,16.70
2006,07,08,07,23,16.80
2006,07,08,07,24,16.90
2006,07,08,07,25,17.00
2006,07,08,07,26,17.10
2006,07,08,07,27,17.20
2006,07,08,07,28,17.30
2006,07,08,07,29,17.30
2006,07,08,07,30,17.30
2006,07,08,07,31,17.40
2006,07,08,07,32,17.50
2006,07,08,07,33,17.60
2006,07,08,07,34,17.70
2006,07,08,07,35,17.80
2006,07,08,07,36,17.80
2006,07,08,07,37,17.80
2006,07,08,07,38,17.90
2006,07,08,07,39,17.90
2006,07,08,07,40,17.90
2006,07,08,07,41,17.90
2006,07,08,07,42,17.80
2006,07,08,07,43,17.70
2006,07,08,07,44,17.60
2006,07,08,07,45,17.50
2006,07,08,07,46,17.50
2006,07,08,07,47,17.50
2006,07,08,07,48,17.40
2006,07,08,07,49,17.40
2006,07,08,07,50,17.30
2006,07,08,07,51,17.30
2006,07,08,07,52,17.30
2006,07,08,07,53,17.30
2006,07,08,07,54,17.30
2006,07,08,07,55,17.30
2006,07,08,07,56,17.30
2006,07,08,07,57,17.30
2006,07,08,07,58,17.30
2006,07,08,07,59,17.30
2006,07,08,08,00,17.30
2006,07,08,08,01,17.30
2006,07,08,08,02,17.40
2006,07,08,08,03,17.40
2006,07,08,08,04,17.40
2006,07,08,08,05,17.40
2006,07,08,08,06,17.40
2006,07,08,08,07,17.50
2006,07,08,08,08,17.50
2006,07,08,08,09,17.60
2006,07,08,08,10,17.70
2006,07,08,08,11,17.70
2006,07,08,08,12,17.80
2006,07,08,08,13,17.90
2006,07,08,08,14,18.10
2006,07,08,08,15,18.10
2006,07,08,08,16,18.20
2006,07,08,08,17,18.20
2006,07,08,08,18,18.20
2006,07,08,08,19,18.20
2006,07,08,08,20,18.30
2006,07,08,08,21,18.40
2006,07,08,08,22,18.50
2006,07,08,08,23,18.50
2006,07,08,08,24,18.60
2006,07,08,08,25,18.70
2006,07,08,08,26,18.80
2006,07,08,08,27,18.90
2006,07,08,08,28,19.10
2006,07,08,08,29,19.20
2006,07,08,08,30,19.30
2006,07,08,08,31,19.40
2006,07,08,08,32,19.40
2006,07,08,08,33,19.40
2006,07,08,08,34,19.40
2006,07,08,08,35,19.40
2006,07,08,08,36,19.40
2006,07,08,08,37,19.40
2006,07,08,08,38,19.30
2006,07,08,08,39,19.10
2006,07,08,08,40,19.10
2006,07,08,08,41,19.00
2006,07,08,08,42,18.80
2006,07,08,08,43,18.70
2006,07,08,08,44,18.70
2006,07,08,08,45,18.70
2006,07,08,08,46,18.70
2006,07,08,08,47,18.60
2006,07,08,08,48,18.60
2006,07,08,08,49,18.50
2006,07,08,08,50,18.50
2006,07,08,08,51,18.50
2006,07,08,08,52,18.60
2006,07,08,08,53,18.60
2006,07,08,08,54,18.70
2006,07,08,08,55,18.70
2006,07,08,08,56,18.60
2006,07,08,08,57,18.60
2006,07,08,08,58,18.60
2006,07,08,08,59,18.60
2006,07,08,09,00,18.60
2006,07,08,09,01,18.60
2006,07,08,09,02,18.60
2006,07,08,09,03,18.50
2006,07,08,09,04,18.50
2006,07,08,09,05,18.40
2006,07,08,09,06,18.40
2006,07,08,09,07,18.40
2006,07,08,09,08,18.50
2006,07,08,09,09,18.60
2006,07,08,09,10,18.70
2006,07,08,09,11,18.70
2006,07,08,09,12,18.70
2006,07,08,09,13,18.70
2006,07,08,09,14,18.70
2006,07,08,09,15,18.70
2006,07,08,09,16,18.70
2006,07,08,09,17,18.80
2006,07,08,09,18,18.90
2006,07,08,09,19,19.00
2006,07,08,09,20,19.10
2006,07,08,09,21,19.10
2006,07,08,09,22,19.10
2006,07,08,09,23,19.20
2006,07,08,09,24,19.30
2006,07,08,09,25,19.40
2006,07,08,09,26,19.40
2006,07,08,09,27,19.50
2006,07,08,09,28,19.60
2006,07,08,09,29,19.60
2006,07,08,09,30,19.50
2006,07,08,09,31,19.50
2006,07,08,09,32,19.60
2006,07,08,09,33,19.60
2006,07,08,09,34,19.60
2006,07,08,09,35,19.60
2006,07,08,09,36,19.70
2006,07,08,09,37,19.90
2006,07,08,09,38,19.90
2006,07,08,09,39,19.80
2006,07,08,09,40,19.80
2006,07,08,09,41,19.80
2006,07,08,09,42,19.90
2006,07,08,09,43,19.90
2006,07,08,09,44,20.00
2006,07,08,09,45,20.10
2006,07,08,09,46,20.10
2006,07,08,09,47,20.20
2006,07,08,09,48,20.20
2006,07,08,09,49,20.20
2006,07,08,09,50,20.20
2006,07,08,09,51,20.20
2006,07,08,09,52,20.20
2006,07,08,09,53,20.30
2006,07,08,09,54,20.40
2006,07,08,09,55,20.40
2006,07,08,09,56,20.50
2006,07,08,09,57,20.50
2006,07,08,09,58,20.60
2006,07,08,09,59,20.60
2006,07,08,10,00,20.60
2006,07,08,10,01,20.60
2006,07,08,10,02,20.50
2006,07,08,10,03,20.50
2006,07,08,10,04,20.40
2006,07,08,10,05,20.40
2006,07,08,10,06,20.50
2006,07,08,10,07,20.50
2006,07,08,10,08,20.60
2006,07,08,10,09,20.70
2006,07,08,10,10,20.70
2006,07,08,10,11,20.70
2006,07,08,10,12,20.60
2006,07,08,10,13,20.50
2006,07,08,10,14,20.40
2006,07,08,10,15,20.30
2006,07,08,10,16,20.20
2006,07,08,10,17,20.20
2006,07,08,10,18,20.20
2006,07,08,10,19,20.30
2006,07,08,10,20,20.40
2006,07,08,10,21,20.40
2006,07,08,10,22,20.40
2006,07,08,10,23,20.50
2006,07,08,10,24,20.50
2006,07,08,10,25,20.50
2006,07,08,10,26,20.40
2006,07,08,10,27,20.40
2006,07,08,10,28,20.40
2006,07,08,10,29,20.50
2006,07,08,10,30,20.50
2006,07,08,10,31,20.50
2006,07,08,10,32,20.50
2006,07,08,10,33,20.60
2006,07,08,10,34,20.80
2006,07,08,10,35,20.90
2006,07,08,10,36,21.00
2006,07,08,10,37,21.10
2006,07,08,10,38,21.00
2006,07,08,10,39,21.00
2006,07,08,10,40,21.00
2006,07,08,10,41,21.10
2006,07,08,10,42,21.10
2006,07,08,10,43,21.20
2006,07,08,10,44,21.30
2006,07,08,10,45,21.30
2006,07,08,10,46,21.30
2006,07,08,10,47,21.20
2006,07,08,10,48,21.10
2006,07,08,10,49,21.10
2006,07,08,10,50,21.20
2006,07,08,10,51,21.20
2006,07,08,10,52,21.40
2006,07,08,10,53,21.40
2006,07,08,10,54,21.40
2006,07,08,10,55,21.50
2006,07,08,10,56,21.60
2006,07,08,10,57,21.60
2006,07,08,10,58,21.80
2006,07,08,10,59,21.90
2006,07,08,11,00,21.90
2006,07,08,11,01,21.80
2006,07,08,11,02,21.80
2006,07,08,11,03,21.80
2006,07,08,11,04,21.80
2006,07,08,11,05,21.90
2006,07,08,11,06,22.00
2006,07,08,11,07,21.90
2006,07,08,11,08,21.90
2006,07,08,11,09,22.00
2006,07,08,11,10,22.00
2006,07,08,11,11,22.10
2006,07,08,11,12,22.00
2006,07,08,11,13,22.00
2006,07,08,11,14,22.10
2006,07,08,11,15,22.10
2006,07,08,11,16,22.20
2006,07,08,11,17,22.10
2006,07,08,11,18,22.10
2006,07,08,11,19,22.10
2006,07,08,11,20,22.10
2006,07,08,11,21,22.00
2006,07,08,11,22,22.00
2006,07,08,11,23,21.90
2006,07,08,11,24,21.90
2006,07,08,11,25,21.90
2006,07,08,11,26,22.00
2006,07,08,11,27,22.10
2006,07,08,11,28,22.30
2006,07,08,11,29,22.40
2006,07,08,11,30,22.50
2006,07,08,11,31,22.50
2006,07,08,11,32,22.60
2006,07,08,11,33,22.60
2006,07,08,11,34,22.60
2006,07,08,11,35,22.70
2006,07,08,11,36,22.70
2006,07,08,11,37,22.70
2006,07,08,11,38,22.70
2006,07,08,11,39,22.80
2006,07,08,11,40,22.80
2006,07,08,11,41,22.90
2006,07,08,11,42,22.90
2006,07,08,11,43,22.90
2006,07,08,11,44,22.90
2006,07,08,11,45,22.80
2006,07,08,11,46,22.80
2006,07,08,11,47,22.70
2006,07,08,11,48,22.60
2006,07,08,11,49,22.50
2006,07,08,11,50,22.40
2006,07,08,11,51,22.40
2006,07,08,11,52,22.40
2006,07,08,11,53,22.50
2006,07,08,11,54,22.50
2006,07,08,11,55,22.50
2006,07,08,11,56,22.60
2006,07,08,11,57,22.70
2006,07,08,11,58,22.80
2006,07,08,11,59,22.90
2006,07,08,12,00,22.80
2006,07,08,12,01,22.70
2006,07,08,12,02,22.70
2006,07,08,12,03,22.60
2006,07,08,12,04,22.70
2006,07,08,12,05,22.70
2006,07,08,12,06,22.70
2006,07,08,12,07,22.80
2006,07,08,12,08,22.80
2006,07,08,12,09,22.80
2006,07,08,12,10,22.80
2006,07,08,12,11,22.80
2006,07,08,12,12,22.90
2006,07,08,12,13,23.00
2006,07,08,12,14,23.20
2006,07,08,12,15,23.30
2006,07,08,12,16,23.30
2006,07,08,12,17,23.30
2006,07,08,12,18,23.30
2006,07,08,12,19,23.30
2006,07,08,12,20,23.30
2006,07,08,12,21,23.40
2006,07,08,12,22,23.50
2006,07,08,12,23,23.60
2006,07,08,12,24,23.70
2006,07,08,12,25,23.70
2006,07,08,12,26,23.70
2006,07,08,12,27,23.70
2006,07,08,12,28,23.60
2006,07,08,12,29,23.60
2006,07,08,12,30,23.60
2006,07,08,12,31,23.70
2006,07,08,12,32,23.80
2006,07,08,12,33,23.80
2006,07,08,12,34,23.90
2006,07,08,12,35,23.80
2006,07,08,12,36,23.70
2006,07,08,12,37,23.70
2006,07,08,12,38,23.70
2006,07,08,12,39,23.70
2006,07,08,12,40,23.70
2006,07,08,12,41,23.80
2006,07,08,12,42,23.90
2006,07,08,12,43,24.10
2006,07,08,12,44,24.20
2006,07,08,12,45,24.20
2006,07,08,12,46,24.20
2006,07,08,12,47,24.20
2006,07,08,12,48,24.30
2006,07,08,12,49,24.40
2006,07,08,12,50,24.40
2006,07,08,12,51,24.50
2006,07,08,12,52,24.50
2006,07,08,12,53,24.60
2006,07,08,12,54,24.60
2006,07,08,12,55,24.50
2006,07,08,12,56,24.40
2006,07,08,12,57,24.40
2006,07,08,12,58,24.50
2006,07,08,12,59,24.50
2006,07,08,13,00,24.40
2006,07,08,13,01,24.30
2006,07,08,13,02,24.40
2006,07,08,13,03,24.30
2006,07,08,13,04,24.30
2006,07,08,13,05,24.40
2006,07,08,13,06,24.40
2006,07,08,13,07,24.40
2006,07,08,13,08,24.40
2006,07,08,13,09,24.50
2006,07,08,13,10,24.50
2006,07,08,13,11,24.50
2006,07,08,13,12,24.70
2006,07,08,13,13,24.90
2006,07,08,13,14,25.00
2006,07,08,13,15,25.00
2006,07,08,13,16,24.90
2006,07,08,13,17,24.70
2006,07,08,13,18,24.50
2006,07,08,13,19,24.40
2006,07,08,13,20,24.40
2006,07,08,13,21,24.40
2006,07,08,13,22,24.30
2006,07,08,13,23,24.30
2006,07,08,13,24,24.40
2006,07,08,13,25,24.50
2006,07,08,13,26,24.60
2006,07,08,13,27,24.60
2006,07,08,13,28,24.70
2006,07,08,13,29,24.70
2006,07,08,13,30,24.80
2006,07,08,13,31,24.90
2006,07,08,13,32,24.90
2006,07,08,13,33,24.90
2006,07,08,13,34,24.90
2006,07,08,13,35,24.90
2006,07,08,13,36,24.90
2006,07,08,13,37,24.90
2006,07,08,13,38,24.90
2006,07,08,13,39,25.00
2006,07,08,13,40,24.90
2006,07,08,13,41,24.80
2006,07,08,13,42,24.80
2006,07,08,13,43,24.80
2006,07,08,13,44,24.80
2006,07,08,13,45,24.80
2006,07,08,13,46,24.70
2006,07,08,13,47,24.60
2006,07,08,13,48,24.60
2006,07,08,13,49,24.60
2006,07,08,13,50,24.50
2006,07,08,13,51,24.60
2006,07,08,13,52,24.70
2006,07,08,13,53,24.80
2006,07,08,13,54,24.70
2006,07,08,13,55,24.70
2006,07,08,13,56,24.70
2006,07,08,13,57,24.90
2006,07,08,13,58,24.90
2006,07,08,13,59,24.90
2006,07,08,14,00,24.80
2006,07,08,14,01,24.70
2006,07,08,14,02,24.60
2006,07,08,14,03,24.50
2006,07,08,14,04,24.40
2006,07,08,14,05,24.30
2006,07,08,14,06,24.30
2006,07,08,14,07,24.50
2006,07,08,14,08,24.70
2006,07,08,14,09,24.90
2006,07,08,14,10,25.10
2006,07,08,14,11,25.20
2006,07,08,14,12,25.30
2006,07,08,14,13,25.30
2006,07,08,14,14,25.20
2006,07,08,14,15,25.20
2006,07,08,14,16,25.20
2006,07,08,14,17,25.30
2006,07,08,14,18,25.40
2006,07,08,14,19,25.50
2006,07,08,14,20,25.60
2006,07,08,14,21,25.60
2006,07,08,14,22,25.60
2006,07,08,14,23,25.50
2006,07,08,14,24,25.40
2006,07,08,14,25,25.40
2006,07,08,14,26,25.40
2006,07,08,14,27,25.50
2006,07,08,14,28,25.50
2006,07,08,14,29,25.50
2006,07,08,14,30,25.40
2006,07,08,14,31,25.40
2006,07,08,14,32,25.40
2006,07,08,14,33,25.40
2006,07,08,14,34,25.40
2006,07,08,14,35,25.30
2006,07,08,14,36,25.30
2006,07,08,14,37,25.20
2006,07,08,14,38,25.10
2006,07,08,14,39,24.90
2006,07,08,14,40,24.80
2006,07,08,14,41,24.80
2006,07,08,14,42,24.90
2006,07,08,14,43,25.10
2006,07,08,14,44,25.20
2006,07,08,14,45,25.20
2006,07,08,14,46,25.30
2006,07,08,14,47,25.40
2006,07,08,14,48,25.20
2006,07,08,14,49,24.90
2006,07,08,14,50,24.90
2006,07,08,14,51,24.90
2006,07,08,14,52,24.90
2006,07,08,14,53,24.90
2006,07,08,14,54,24.90
2006,07,08,14,55,25.10
2006,07,08,14,56,25.30
2006,07,08,14,57,25.40
2006,07,08,14,58,25.60
2006,07,08,14,59,25.60
2006,07,08,15,00,25.60
2006,07,08,15,01,25.50
2006,07,08,15,02,25.40
2006,07,08,15,03,25.20
2006,07,08,15,04,25.20
2006,07,08,15,05,25.30
2006,07,08,15,06,25.40
2006,07,08,15,07,25.40
2006,07,08,15,08,25.40
2006,07,08,15,09,25.40
2006,07,08,15,10,25.40
2006,07,08,15,11,25.40
2006,07,08,15,12,25.40
2006,07,08,15,13,25.50
2006,07,08,15,14,25.60
2006,07,08,15,15,25.50
2006,07,08,15,16,25.40
2006,07,08,15,17,25.30
2006,07,08,15,18,25.20
2006,07,08,15,19,25.20
2006,07,08,15,20,25.10
2006,07,08,15,21,25.20
2006,07,08,15,22,25.40
2006,07,08,15,23,25.50
2006,07,08,15,24,25.60
2006,07,08,15,25,25.60
2006,07,08,15,26,25.70
2006,07,08,15,27,25.70
2006,07,08,15,28,25.90
2006,07,08,15,29,26.10
2006,07,08,15,30,26.20
2006,07,08,15,31,26.20
2006,07,08,15,32,26.10
2006,07,08,15,33,26.10
2006,07,08,15,34,26.00
2006,07,08,15,35,26.10
2006,07,08,15,36,26.30
2006,07,08,15,37,26.30
2006,07,08,15,38,26.40
2006,07,08,15,39,26.40
2006,07,08,15,40,26.30
2006,07,08,15,41,26.30
2006,07,08,15,42,26.30
2006,07,08,15,43,26.20
2006,07,08,15,44,26.20
2006,07,08,15,45,26.20
2006,07,08,15,46,26.20
2006,07,08,15,47,26.00
2006,07,08,15,48,25.80
2006,07,08,15,49,25.80
2006,07,08,15,50,25.80
2006,07,08,15,51,25.80
2006,07,08,15,52,25.70
2006,07,08,15,53,25.60
2006,07,08,15,54,25.60
2006,07,08,15,55,25.50
2006,07,08,15,56,25.40
2006,07,08,15,57,25.50
2006,07,08,15,58,25.40
2006,07,08,15,59,25.40
2006,07,08,16,00,25.50
2006,07,08,16,01,25.60
2006,07,08,16,02,25.70
2006,07,08,16,03,25.90
2006,07,08,16,04,26.00
2006,07,08,16,05,25.90
2006,07,08,16,06,25.90
2006,07,08,16,07,26.00
2006,07,08,16,08,25.90
2006,07,08,16,09,25.90
2006,07,08,16,10,25.80
2006,07,08,16,11,25.70
2006,07,08,16,12,25.60
2006,07,08,16,13,25.70
2006,07,08,16,14,25.70
2006,07,08,16,15,25.70
2006,07,08,16,16,25.70
2006,07,08,16,17,25.80
2006,07,08,16,18,25.90
2006,07,08,16,19,26.10
2006,07,08,16,20,26.10
2006,07,08,16,21,26.10
2006,07,08,16,22,26.20
2006,07,08,16,23,26.30
2006,07,08,16,24,26.30
2006,07,08,16,25,26.30
2006,07,08,16,26,26.30
2006,07,08,16,27,26.30
2006,07,08,16,28,26.30
2006,07,08,16,29,26.20
2006,07,08,16,30,26.20
2006,07,08,16,31,26.30
2006,07,08,16,32,26.30
2006,07,08,16,33,26.30
2006,07,08,16,34,26.20
2006,07,08,16,35,26.20
2006,07,08,16,36,26.20
2006,07,08,16,37,26.10
2006,07,08,16,38,25.90
2006,07,08,16,39,25.90
2006,07,08,16,40,25.90
2006,07,08,16,41,25.80
2006,07,08,16,42,25.90
2006,07,08,16,43,26.00
2006,07,08,16,44,26.00
2006,07,08,16,45,26.00
2006,07,08,16,46,25.90
2006,07,08,16,47,25.90
2006,07,08,16,48,25.90
2006,07,08,16,49,25.80
2006,07,08,16,50,25.80
2006,07,08,16,51,25.90
2006,07,08,16,52,26.00
2006,07,08,16,53,25.90
2006,07,08,16,54,25.90
2006,07,08,16,55,25.90
2006,07,08,16,56,25.90
2006,07,08,16,57,25.80
2006,07,08,16,58,25.90
2006,07,08,16,59,25.90
2006,07,08,17,00,26.00
2006,07,08,17,01,26.00
2006,07,08,17,02,26.00
2006,07,08,17,03,26.10
2006,07,08,17,04,26.10
2006,07,08,17,05,26.20
2006,07,08,17,06,26.20
2006,07,08,17,07,26.30
2006,07,08,17,08,26.20
2006,07,08,17,09,26.10
2006,07,08,17,10,26.10
2006,07,08,17,11,26.20
2006,07,08,17,12,26.30
2006,07,08,17,13,26.30
2006,07,08,17,14,26.30
2006,07,08,17,15,26.20
2006,07,08,17,16,26.20
2006,07,08,17,17,26.20
2006,07,08,17,18,26.20
2006,07,08,17,19,26.10